Time,TemperatureF,DewpointF,PressureIn,WindDirection,WindDirectionDegrees,WindSpeedMPH,WindSpeedGustMPH,Humidity,HourlyPrecipIn,Conditions,Clouds,dailyrainin,SolarRadiationWatts/m^2,SoftwareType,DateUTC
2013-12-05 00:00:00,64.6,61.0,29.76,South,189,5.0,8.0,88,0.00,OVC,OVC,0.00,0.0,WeatherDisplay:10.37,2013-12-05 06:00:00,
2013-12-05 00:10:00,64.7,61.4,29.76,South,180,3.0,7.0,89,0.00,BKN,BKN,0.00,0.0,WeatherDisplay:10.37,2013-12-05 06:10:00,
2013-12-05 00:20:00,64.7,61.4,29.76,SSW,199,5.0,7.0,89,0.00,BKN,BKN,0.00,0.0,WeatherDisplay:10.37,2013-12-05 06:20:00,
2013-12-05 02:20:00,65.4,62.4,29.78,West,265,1.0,7.0,90,0.00,BKN,BKN,0.00,0.0,WeatherDisplay:10.37,2013-12-05 08:20:00,
2013-12-05 02:30:00,65.9,62.5,29.79,WSW,257,1.0,5.0,89,0.00,CLR,CLR,0.00,0.0,WeatherDisplay:10.37,2013-12-05 08:30:00,
2013-12-05 02:40:00,65.6,62.3,29.80,West,278,1.0,4.0,89,0.00,CLR,CLR,0.00,0.0,WeatherDisplay:10.37,2013-12-05 08:40:00,
2013-12-05 02:50:00,65.4,62.1,29.80,WNW,299,1.0,4.0,89,0.00,BKN,BKN,0.00,0.0,WeatherDisplay:10.37,2013-12-05 08:50:00,
2013-12-05 03:00:00,65.4,62.4,29.80,WNW,282,2.0,3.0,90,0.00,BKN,BKN,0.00,0.0,WeatherDisplay:10.37,2013-12-05 09:00:00,
2013-12-05 03:10:00,65.3,62.3,29.81,WSW,255,1.0,3.0,90,0.00,OVC,OVC,0.00,0.0,WeatherDisplay:10.37,2013-12-05 09:10:00,
2013-12-05 03:20:00,65.2,62.2,29.81,WSW,248,1.0,4.0,90,0.00,OVC,OVC,0.00,0.0,WeatherDisplay:10.37,2013-12-05 09:20:00,
2013-12-05 03:30:00,64.9,62.2,29.80,WSW,249,1.0,4.0,91,0.00,OVC,OVC,0.00,0.0,WeatherDisplay:10.37,2013-12-05 09:30:00,
2013-12-05 03:40:00,64.4,62.0,29.80,WNW,294,1.0,2.0,92,0.00,OVC,OVC,0.00,0.0,WeatherDisplay:10.37,2013-12-05 09:40:00,
2013-12-05 03:50:00,63.3,60.4,29.81,NNW,333,8.0,12.0,90,0.00,OVC,OVC,0.00,0.0,WeatherDisplay:10.37,2013-12-05 09:50:00,
2013-12-05 04:00:00,59.6,55.1,29.82,NW,324,7.0,18.0,85,0.00,OVC,OVC,0.00,0.0,WeatherDisplay:10.37,2013-12-05 10:00:00,
2013-12-05 04:10:00,56.8,52.3,29.82,NNW,334,9.0,17.0,85,0.00,OVC,OVC,0.00,0.0,WeatherDisplay:10.37,2013-12-05 10:10:00,
2013-12-05 04:20:00,55.7,51.9,29.82,NNW,330,8.0,15.0,87,0.00,OVC,OVC,0.00,0.0,WeatherDisplay:10.37,2013-12-05 10:20:00,
2013-12-05 04:30:00,55.2,51.4,29.83,NW,325,6.0,13.0,87,0.00,OVC,OVC,0.00,0.0,WeatherDisplay:10.37,2013-12-05 10:30:00,
2013-12-05 04:40:00,54.6,51.1,29.84,NNW,328,6.0,17.0,88,0.00,OVC,OVC,0.00,0.0,WeatherDisplay:10.37,2013-12-05 10:40:00,
2013-12-05 04:50:00,54.1,50.3,29.84,NNW,329,9.0,13.0,87,0.00,OVC,OVC,0.00,0.0,WeatherDisplay:10.37,2013-12-05 10:50:00,
2013-12-05 05:00:00,53.7,49.9,29.85,NNW,335,9.0,18.0,87,0.00,OVC,OVC,0.00,0.0,WeatherDisplay:10.37,2013-12-05 11:00:00,
2013-12-05 05:10:00,53.4,49.3,29.86,NNW,343,9.0,18.0,86,0.00,OVC,OVC,0.00,0.0,WeatherDisplay:10.37,2013-12-05 11:10:00,
2013-12-05 05:20:00,53.2,49.1,29.86,NNW,344,10.0,16.0,86,0.00,OVC,OVC,0.00,0.0,WeatherDisplay:10.37,2013-12-05 11:20:00,
2013-12-05 05:30:00,52.8,48.1,29.87,NNW,334,8.0,17.0,84,0.00,OVC,OVC,0.00,0.0,WeatherDisplay:10.37,2013-12-05 11:30:00,
2013-12-05 05:40:00,52.4,47.4,29.87,NNW,335,10.0,18.0,83,0.00,OVC,OVC,0.00,0.0,WeatherDisplay:10.37,2013-12-05 11:40:00,
2013-12-05 05:50:00,51.7,46.4,29.88,NNW,339,12.0,21.0,82,0.00,OVC,OVC,0.00,0.0,WeatherDisplay:10.37,2013-12-05 11:50:00,
2013-12-05 06:00:00,51.4,46.1,29.89,NNW,336,10.0,20.0,82,0.00,OVC,OVC,0.00,0.0,WeatherDisplay:10.37,2013-12-05 12:00:00,
2013-12-05 06:10:00,51.4,46.1,29.90,NNW,333,10.0,20.0,82,0.00,OVC,OVC,0.00,0.0,WeatherDisplay:10.37,2013-12-05 12:10:00,
2013-12-05 06:20:00,51.2,45.9,29.90,NNW,337,13.0,20.0,82,0.00,OVC,OVC,0.00,0.0,WeatherDisplay:10.37,2013-12-05 12:20:00,
2013-12-05 06:30:00,50.9,45.9,29.91,NNW,337,12.0,19.0,83,0.00,OVC,OVC,0.00,0.0,WeatherDisplay:10.37,2013-12-05 12:30:00,
2013-12-05 06:40:00,50.4,45.7,29.91,NNW,334,9.0,20.0,84,0.00,OVC,OVC,0.00,0.0,WeatherDisplay:10.37,2013-12-05 12:40:00,
2013-12-05 06:50:00,49.9,45.3,29.92,NNW,345,13.0,22.0,84,0.00,OVC,OVC,0.00,0.0,WeatherDisplay:10.37,2013-12-05 12:50:00,
2013-12-05 07:00:00,49.5,44.5,29.92,North,350,14.0,21.0,83,0.00,OVC,OVC,0.00,0.0,WeatherDisplay:10.37,2013-12-05 13:00:00,
2013-12-05 07:10:00,49.0,44.4,29.93,NNW,328,10.0,20.0,84,0.00,OVC,OVC,0.00,0.0,WeatherDisplay:10.37,2013-12-05 13:10:00,
2013-12-05 07:20:00,48.3,43.7,29.95,NNW,346,13.0,20.0,84,0.00,OVC,OVC,0.00,0.0,WeatherDisplay:10.37,2013-12-05 13:20:00,
2013-12-05 07:30:00,47.5,42.6,29.95,North,351,17.0,25.0,83,0.00,OVC,OVC,0.00,0.0,WeatherDisplay:10.37,2013-12-05 13:30:00,
2013-12-05 07:40:00,47.0,42.4,29.96,NNW,343,9.0,20.0,84,0.00,OVC,OVC,0.00,0.0,WeatherDisplay:10.37,2013-12-05 13:40:00,
2013-12-05 07:50:00,45.9,40.4,29.97,NNW,342,17.0,22.0,81,0.00,OVC,OVC,0.00,0.0,WeatherDisplay:10.37,2013-12-05 13:50:00,
2013-12-05 08:00:00,45.3,39.8,29.98,NNW,347,12.0,20.0,81,0.00,OVC,OVC,0.00,0.0,WeatherDisplay:10.37,2013-12-05 14:00:00,
2013-12-05 08:10:00,45.0,39.5,29.98,NNW,346,6.0,21.0,81,0.00,OVC,OVC,0.00,0.0,WeatherDisplay:10.37,2013-12-05 14:10:00,
2013-12-05 08:20:00,44.7,38.6,29.99,North,359,8.0,20.0,79,0.00,OVC,OVC,0.00,0.0,WeatherDisplay:10.37,2013-12-05 14:20:00,
2013-12-05 08:30:00,44.7,38.3,29.99,North,354,9.0,17.0,78,0.00,OVC,OVC,0.00,0.0,WeatherDisplay:10.37,2013-12-05 14:30:00,
2013-12-05 08:40:00,44.8,38.3,30.00,North,351,8.0,16.0,78,0.00,OVC,OVC,0.00,0.0,WeatherDisplay:10.37,2013-12-05 14:40:00,
2013-12-05 08:50:00,44.9,38.5,30.02,North,354,9.0,18.0,78,0.00,OVC,OVC,0.00,0.0,WeatherDisplay:10.37,2013-12-05 14:50:00,
2013-12-05 09:00:00,44.4,37.3,30.02,North,349,13.0,18.0,76,0.00,OVC,OVC,0.00,0.0,WeatherDisplay:10.37,2013-12-05 15:00:00,
2013-12-05 09:10:00,44.0,36.9,30.02,NNW,340,8.0,18.0,76,0.00,OVC,OVC,0.00,0.0,WeatherDisplay:10.37,2013-12-05 15:10:00,
2013-12-05 09:20:00,43.6,36.9,30.03,NNW,346,6.0,14.0,77,0.00,OVC,OVC,0.00,0.0,WeatherDisplay:10.37,2013-12-05 15:20:00,
2013-12-05 09:30:00,42.9,35.9,30.04,NNW,341,8.0,17.0,76,0.00,OVC,OVC,0.00,0.0,WeatherDisplay:10.37,2013-12-05 15:30:00,
2013-12-05 09:40:00,42.5,35.8,30.04,North,350,10.0,20.0,77,0.00,OVC,OVC,0.00,0.0,WeatherDisplay:10.37,2013-12-05 15:40:00,
2013-12-05 09:50:00,42.3,35.9,30.04,North,359,9.0,17.0,78,0.00,OVC,OVC,0.00,0.0,WeatherDisplay:10.37,2013-12-05 15:50:00,
2013-12-05 10:00:00,42.1,36.1,30.04,North,349,7.0,15.0,79,0.00,OVC,OVC,0.00,0.0,WeatherDisplay:10.37,2013-12-05 16:00:00,
2013-12-05 10:10:00,42.1,35.7,30.03,North,357,7.0,14.0,78,0.00,OVC,OVC,0.00,0.0,WeatherDisplay:10.37,2013-12-05 16:10:00,
2013-12-05 10:20:00,42.0,35.3,30.03,North,352,5.0,12.0,77,0.00,OVC,OVC,0.00,0.0,WeatherDisplay:10.37,2013-12-05 16:20:00,
2013-12-05 10:30:00,42.0,35.3,30.03,North,7,8.0,14.0,77,0.00,OVC,OVC,0.00,0.0,WeatherDisplay:10.37,2013-12-05 16:30:00,
2013-12-05 10:40:00,42.0,35.0,30.03,North,351,8.0,14.0,76,0.00,OVC,OVC,0.00,0.0,WeatherDisplay:10.37,2013-12-05 16:40:00,
2013-12-05 10:50:00,42.3,35.6,30.02,NNE,16,7.0,12.0,77,0.00,OVC,OVC,0.00,0.0,WeatherDisplay:10.37,2013-12-05 16:50:00,
2013-12-05 11:00:00,42.4,35.7,30.04,North,353,5.0,12.0,77,0.00,OVC,OVC,0.00,0.0,WeatherDisplay:10.37,2013-12-05 17:00:00,
2013-12-05 11:10:00,42.4,35.4,30.04,North,9,7.0,13.0,76,0.00,OVC,OVC,0.00,0.0,WeatherDisplay:10.37,2013-12-05 17:10:00,
2013-12-05 11:20:00,42.0,34.0,30.04,NNE,22,7.0,16.0,73,0.00,OVC,OVC,0.00,0.0,WeatherDisplay:10.37,2013-12-05 17:20:00,
2013-12-05 11:30:00,41.5,32.1,30.03,North,9,10.0,17.0,69,0.00,OVC,OVC,0.00,0.0,WeatherDisplay:10.37,2013-12-05 17:30:00,
2013-12-05 11:40:00,40.8,31.1,30.01,North,357,9.0,18.0,68,0.00,OVC,OVC,0.00,0.0,WeatherDisplay:10.37,2013-12-05 17:40:00,
2013-12-05 11:50:00,40.3,30.9,30.01,North,4,12.0,17.0,69,0.00,OVC,OVC,0.00,0.0,WeatherDisplay:10.37,2013-12-05 17:50:00,
2013-12-05 12:00:00,39.8,31.2,30.04,North,352,7.0,20.0,71,0.00,OVC,OVC,0.00,0.0,WeatherDisplay:10.37,2013-12-05 18:00:00,
2013-12-05 12:10:00,39.3,31.1,30.04,NNW,337,10.0,20.0,72,0.00,OVC,OVC,0.00,0.0,WeatherDisplay:10.37,2013-12-05 18:10:00,
2013-12-05 12:20:00,38.8,31.2,30.04,North,359,10.0,18.0,74,0.00,OVC,OVC,0.00,0.0,WeatherDisplay:10.37,2013-12-05 18:20:00,
2013-12-05 12:30:00,38.5,31.3,30.03,North,353,9.0,18.0,75,0.00,OVC,OVC,0.00,0.0,WeatherDisplay:10.37,2013-12-05 18:30:00,
2013-12-05 12:40:00,38.8,31.2,30.04,North,357,10.0,17.0,74,0.00,OVC,OVC,0.00,0.0,WeatherDisplay:10.37,2013-12-05 18:40:00,
2013-12-05 12:50:00,38.5,30.6,30.04,NNW,342,10.0,17.0,73,0.00,OVC,OVC,0.00,0.0,WeatherDisplay:10.37,2013-12-05 18:50:00,
2013-12-05 13:00:00,38.5,30.9,30.05,North,359,12.0,20.0,74,0.00,OVC,OVC,0.00,0.0,WeatherDisplay:10.37,2013-12-05 19:00:00,
2013-12-05 13:10:00,38.5,30.9,30.05,North,359,10.0,20.0,74,0.00,OVC,OVC,0.00,0.0,WeatherDisplay:10.37,2013-12-05 19:10:00,
2013-12-05 13:20:00,38.1,31.2,30.04,NNW,343,10.0,20.0,76,0.00,OVC,OVC,0.00,0.0,WeatherDisplay:10.37,2013-12-05 19:20:00,
2013-12-05 13:30:00,38.0,31.1,30.05,North,358,13.0,20.0,76,0.00,OVC,OVC,0.00,0.0,WeatherDisplay:10.37,2013-12-05 19:30:00,
2013-12-05 13:40:00,37.6,30.7,30.05,North,4,8.0,24.0,76,0.00,OVC,OVC,0.00,0.0,WeatherDisplay:10.37,2013-12-05 19:40:00,
2013-12-05 13:50:00,37.3,30.4,30.04,North,11,9.0,17.0,76,0.00,OVC,OVC,0.00,0.0,WeatherDisplay:10.37,2013-12-05 19:50:00,
2013-12-05 14:00:00,36.9,30.4,30.04,North,0,10.0,17.0,77,0.00,OVC,OVC,0.00,0.0,WeatherDisplay:10.37,2013-12-05 20:00:00,
2013-12-05 14:10:00,36.6,30.1,30.03,NNE,17,9.0,18.0,77,0.00,OVC,OVC,0.00,0.0,WeatherDisplay:10.37,2013-12-05 20:10:00,
2013-12-05 14:20:00,36.5,30.0,30.03,NNE,23,9.0,16.0,77,0.00,OVC,OVC,0.00,0.0,WeatherDisplay:10.37,2013-12-05 20:20:00,
2013-12-05 14:30:00,36.5,30.3,30.03,NNE,23,10.0,16.0,78,0.00,OVC,OVC,0.00,0.0,WeatherDisplay:10.37,2013-12-05 20:30:00,
2013-12-05 14:40:00,36.3,30.1,30.05,North,2,8.0,15.0,78,0.00,OVC,OVC,0.00,0.0,WeatherDisplay:10.37,2013-12-05 20:40:00,
2013-12-05 14:50:00,36.1,29.9,30.04,NNE,12,7.0,17.0,78,0.00,OVC,OVC,0.00,0.0,WeatherDisplay:10.37,2013-12-05 20:50:00,
2013-12-05 15:00:00,35.7,30.8,30.05,NNE,24,9.0,16.0,82,0.00,OVC,OVC,0.00,0.0,WeatherDisplay:10.37,2013-12-05 21:00:00,
2013-12-05 15:10:00,35.3,30.7,30.05,NNE,27,9.0,16.0,83,0.00,OVC,OVC,0.00,0.0,WeatherDisplay:10.37,2013-12-05 21:10:00,
2013-12-05 15:20:00,34.9,30.2,30.06,NNE,18,13.0,18.0,83,0.00,OVC,OVC,0.00,0.0,WeatherDisplay:10.37,2013-12-05 21:20:00,
2013-12-05 15:30:00,34.6,30.3,30.06,NNE,20,12.0,18.0,84,0.01,RA,RA,0.01,0.0,WeatherDisplay:10.37,2013-12-05 21:30:00,
2013-12-05 15:40:00,34.4,30.6,30.08,NNE,16,5.0,18.0,86,0.00,OVC,OVC,0.01,0.0,WeatherDisplay:10.37,2013-12-05 21:40:00,
2013-12-05 15:50:00,34.5,30.7,30.08,NNE,25,8.0,17.0,86,0.00,OVC,OVC,0.01,0.0,WeatherDisplay:10.37,2013-12-05 21:50:00,
2013-12-05 16:00:00,34.5,31.0,30.08,NNE,18,8.0,15.0,87,0.00,OVC,OVC,0.01,0.0,WeatherDisplay:10.37,2013-12-05 22:00:00,
2013-12-05 16:10:00,34.4,31.0,30.10,NNE,12,7.0,12.0,87,0.00,OVC,OVC,0.01,0.0,WeatherDisplay:10.37,2013-12-05 22:10:00,
2013-12-05 16:20:00,34.4,31.2,30.09,North,9,6.0,13.0,88,0.00,OVC,OVC,0.01,0.0,WeatherDisplay:10.37,2013-12-05 22:20:00,
2013-12-05 16:30:00,34.2,31.0,30.10,NNE,22,7.0,12.0,88,0.01,RA,RA,0.02,0.0,WeatherDisplay:10.37,2013-12-05 22:30:00,
2013-12-05 16:40:00,34.2,31.3,30.10,NNE,15,9.0,13.0,89,0.00,OVC,OVC,0.02,0.0,WeatherDisplay:10.37,2013-12-05 22:40:00,
2013-12-05 16:50:00,34.2,31.5,30.09,NNE,23,9.0,14.0,90,0.00,OVC,OVC,0.02,0.0,WeatherDisplay:10.37,2013-12-05 22:50:00,
2013-12-05 17:00:00,34.1,31.5,30.10,North,7,7.0,14.0,90,0.00,OVC,OVC,0.02,0.0,WeatherDisplay:10.37,2013-12-05 23:00:00,
2013-12-05 17:10:00,34.1,31.5,30.08,NE,35,7.0,14.0,90,0.00,OVC,OVC,0.02,0.0,WeatherDisplay:10.37,2013-12-05 23:10:00,
2013-12-05 17:20:00,34.1,31.5,30.09,NNE,15,8.0,12.0,90,0.00,OVC,OVC,0.02,0.0,WeatherDisplay:10.37,2013-12-05 23:20:00,
2013-12-05 17:30:00,34.1,31.5,30.09,NNE,14,7.0,14.0,90,0.00,OVC,OVC,0.02,0.0,WeatherDisplay:10.37,2013-12-05 23:30:00,
2013-12-05 17:40:00,34.1,31.5,30.09,North,11,6.0,15.0,90,0.00,OVC,OVC,0.02,0.0,WeatherDisplay:10.37,2013-12-05 23:40:00,
2013-12-05 17:50:00,34.1,31.5,30.08,North,10,9.0,15.0,90,0.00,OVC,OVC,0.02,0.0,WeatherDisplay:10.37,2013-12-05 23:50:00,
2013-12-05 18:00:00,34.0,31.4,30.09,NNE,16,7.0,16.0,90,0.00,OVC,OVC,0.02,0.0,WeatherDisplay:10.37,2013-12-06 00:00:00,
2013-12-05 18:10:00,34.1,31.5,30.10,NNE,22,8.0,13.0,90,0.00,OVC,OVC,0.02,0.0,WeatherDisplay:10.37,2013-12-06 00:10:00,
2013-12-05 18:20:00,34.2,31.5,30.08,NNE,26,10.0,19.0,90,0.00,OVC,OVC,0.02,0.0,WeatherDisplay:10.37,2013-12-06 00:20:00,
2013-12-05 18:30:00,34.3,31.4,30.09,NNE,28,10.0,17.0,89,0.00,OVC,OVC,0.02,0.0,WeatherDisplay:10.37,2013-12-06 00:30:00,
2013-12-05 18:40:00,34.3,31.4,30.10,NE,37,6.0,15.0,89,0.00,OVC,OVC,0.02,0.0,WeatherDisplay:10.37,2013-12-06 00:40:00,
2013-12-05 18:50:00,34.4,31.5,30.11,NNE,31,2.0,14.0,89,0.00,OVC,OVC,0.02,0.0,WeatherDisplay:10.37,2013-12-06 00:50:00,
2013-12-05 19:00:00,34.3,31.4,30.12,NNE,20,8.0,14.0,89,0.00,OVC,OVC,0.02,0.0,WeatherDisplay:10.37,2013-12-06 01:00:00,
2013-12-05 19:10:00,33.6,30.9,30.12,North,3,8.0,16.0,90,0.00,OVC,OVC,0.02,0.0,WeatherDisplay:10.37,2013-12-06 01:10:00,
2013-12-05 19:20:00,33.4,30.8,30.12,North,359,10.0,18.0,90,0.00,OVC,OVC,0.02,0.0,WeatherDisplay:10.37,2013-12-06 01:20:00,
2013-12-05 19:30:00,33.1,30.2,30.11,NNE,20,12.0,17.0,89,0.00,OVC,OVC,0.02,0.0,WeatherDisplay:10.37,2013-12-06 01:30:00,
2013-12-05 19:40:00,33.1,30.2,30.12,North,10,9.0,17.0,89,0.00,OVC,OVC,0.02,0.0,WeatherDisplay:10.37,2013-12-06 01:40:00,
2013-12-05 19:50:00,33.0,29.8,30.13,North,5,9.0,18.0,88,0.00,OVC,OVC,0.02,0.0,WeatherDisplay:10.37,2013-12-06 01:50:00,
2013-12-05 20:00:00,32.9,29.5,30.11,NNE,21,8.0,17.0,87,0.00,OVC,OVC,0.02,0.0,WeatherDisplay:10.37,2013-12-06 02:00:00,
2013-12-05 20:10:00,33.0,29.5,30.12,NNE,23,6.0,15.0,87,0.00,OVC,OVC,0.02,0.0,WeatherDisplay:10.37,2013-12-06 02:10:00,
2013-12-05 20:20:00,33.0,29.6,30.14,North,11,10.0,15.0,87,0.00,OVC,OVC,0.02,0.0,WeatherDisplay:10.37,2013-12-06 02:20:00,
2013-12-05 20:30:00,33.0,29.5,30.14,North,357,8.0,15.0,87,0.00,OVC,OVC,0.02,0.0,WeatherDisplay:10.37,2013-12-06 02:30:00,
2013-12-05 20:40:00,32.9,29.7,30.15,NNE,13,7.0,15.0,88,0.00,OVC,OVC,0.02,0.0,WeatherDisplay:10.37,2013-12-06 02:40:00,
2013-12-05 20:50:00,32.5,29.6,30.12,NNE,20,7.0,16.0,89,0.00,OVC,OVC,0.02,0.0,WeatherDisplay:10.37,2013-12-06 02:50:00,
2013-12-05 21:00:00,32.1,29.5,30.13,North,11,10.0,17.0,90,0.00,OVC,OVC,0.02,0.0,WeatherDisplay:10.37,2013-12-06 03:00:00,
2013-12-05 21:10:00,31.9,29.6,30.11,NNE,28,8.0,16.0,91,0.00,OVC,OVC,0.02,0.0,WeatherDisplay:10.37,2013-12-06 03:10:00,
2013-12-05 21:20:00,32.0,29.7,30.12,NE,35,8.0,16.0,91,0.00,OVC,OVC,0.02,0.0,WeatherDisplay:10.37,2013-12-06 03:20:00,
2013-12-05 21:30:00,32.1,29.8,30.13,NE,44,5.0,12.0,91,0.00,OVC,OVC,0.02,0.0,WeatherDisplay:10.37,2013-12-06 03:30:00,
2013-12-05 21:40:00,32.4,30.1,30.17,North,2,3.0,12.0,91,0.00,OVC,OVC,0.02,0.0,WeatherDisplay:10.37,2013-12-06 03:40:00,
2013-12-05 21:50:00,32.5,30.1,30.17,North,7,3.0,15.0,91,0.00,OVC,OVC,0.02,0.0,WeatherDisplay:10.37,2013-12-06 03:50:00,
2013-12-05 22:00:00,32.3,29.7,30.12,NNE,30,7.0,14.0,90,0.00,OVC,OVC,0.02,0.0,WeatherDisplay:10.37,2013-12-06 04:00:00,
2013-12-05 22:10:00,32.1,29.8,30.12,NNE,29,7.0,18.0,91,0.00,OVC,OVC,0.02,0.0,WeatherDisplay:10.37,2013-12-06 04:10:00,
2013-12-05 22:20:00,32.0,29.7,30.13,NE,34,6.0,14.0,91,0.00,OVC,OVC,0.03,0.0,WeatherDisplay:10.37,2013-12-06 04:20:00,
2013-12-05 22:30:00,32.0,29.7,30.16,NNE,12,3.0,13.0,91,0.01,RA,RA,0.03,0.0,WeatherDisplay:10.37,2013-12-06 04:30:00,
2013-12-05 22:40:00,32.0,29.7,30.16,NNE,28,5.0,13.0,91,0.00,OVC,OVC,0.03,0.0,WeatherDisplay:10.37,2013-12-06 04:40:00,
2013-12-05 22:50:00,32.0,29.7,30.15,NNE,25,6.0,14.0,91,0.02,RA,RA,0.05,0.0,WeatherDisplay:10.37,2013-12-06 04:50:00,
2013-12-05 23:00:00,31.7,29.4,30.17,North,10,6.0,14.0,91,0.02,RA,RA,0.07,0.0,WeatherDisplay:10.37,2013-12-06 05:00:00,
2013-12-05 23:10:00,31.7,29.6,30.14,NNE,19,6.0,12.0,92,0.01,RA,RA,0.08,0.0,WeatherDisplay:10.37,2013-12-06 05:10:00,
2013-12-05 23:20:00,31.6,29.5,30.14,North,1,9.0,15.0,92,0.00,OVC,OVC,0.08,0.0,WeatherDisplay:10.37,2013-12-06 05:20:00,
2013-12-05 23:30:00,31.4,29.3,30.11,NNE,26,9.0,12.0,92,0.00,OVC,OVC,0.08,0.0,WeatherDisplay:10.37,2013-12-06 05:30:00,
2013-12-05 23:40:00,31.3,29.2,30.14,NNE,24,6.0,15.0,92,0.00,OVC,OVC,0.08,0.0,WeatherDisplay:10.37,2013-12-06 05:40:00,
2013-12-05 23:50:00,31.5,29.4,30.17,North,7,6.0,12.0,92,0.00,OVC,OVC,0.08,0.0,WeatherDisplay:10.37,2013-12-06 05:50:00,